Find CICERO-1

NORAD ID: 42843 Int'l Des: NNA 2017-042 Owner: GEOOPT Country: US operational
LEOCIRCULARRETROGRADESSO

リアルタイム位置

3D地球を読み込み中...

CICERO-1について

説明を読み込み中...

次回通過

Passes for default location (London). Set your location on the main map for personalized predictions.

高度履歴

Loading altitude history...

軌道要素

1 42843U 17042U 26106.72560727 .00002024 00000-0 16313-3 0 9991
2 42843 97.4417 265.8967 0012844 291.7855 68.2003 15.00920510477408
Epoch: Apr 16, 2026 • Age: 25 hours

現在のステータス

高度 582.8 km
速度 7.57 km/s
衛星直下点 -68.39°S, 56.01°W
打ち上げ日 Jul 14, 2017
運用期間 8.7 years
タイプ other

技術仕様

分類 Payload
質量 10.00 kg
乾燥質量 10.00 kg
総質量 10.00 kg
長さ 0.30 m
直径 0.20 m
スパン 0.60 m
形状 Box+2 pan
製造者 TYVAK
バスタイプ Cubesat 6U
フェーズステータス In Orbit
所有者/国 GEOOPT/US

Most Searched